Location: Camp Crooked Creek
(37.9149°N, 85.6607°W)
Time: 22:14:37
(UTC-04:00)

Daily predictions for brighter satellites

Satellite Brightness Start Highest point End
(mag) Time Altitude Azimuth Time Altitude Azimuth Time Altitude Azimuth
NOSS 3-1 (C) 4.2 20:46:21 10° SW 20:51:57 56° NW 20:58:13 10° NNE
Cosmos 676 Rocket 4.4 20:47:53 10° N 20:53:01 47° ENE 20:58:07 10° SE
Cosmos 1975 Rocket 3.1 20:51:38 10° N 20:56:06 68° E 21:00:30 10° SSE
SeaSat 1 3.0 20:51:38 10° NE 20:56:09 35° ESE 21:00:38 10° S
CZ-2D R/B 3.5 20:52:47 10° SSE 20:56:31 50° ENE 21:00:16 10° N
Cosmos 2151 Rocket 4.4 20:53:21 10° SSE 20:57:07 29° E 21:00:55 10° NNE
DELTA 2 R/B(2) 3.2 20:55:22 10° WNW 20:58:03 77° SSW 20:59:40 10° ESE
Cosmos 1697 Rocket 3.9 20:52:53 10° SW 20:58:17 48° WNW 21:03:44 10° N
Lacrosse 5 3.2 20:56:04 10° SSE 20:59:35 19° ESE 21:03:06 10° ENE
Cosmos 44 3.6 20:56:04 10° NNW 21:00:20 45° NE 21:04:44 10° SE
DELTA 2 R/B (1) 3.6 20:56:36 10° WNW 21:02:14 85° SSW 21:07:51 10° ESE
EXPRESS MD2 2.6 21:02:23 10° WSW 21:04:39 76° NW 21:08:10 10° NE
Spot 2 Rocket 3.7 20:59:57 10° SSE 21:04:53 52° ENE 21:09:50 10° N
Cosmos 1140 Rocket 4.0 21:00:14 10° N 21:05:10 41° ENE 21:10:06 10° SE
Atlas Centaur 2 3.3 21:00:43 10° WSW 21:08:42 49° S 21:15:23 11° ESE
Cosmos 2026 Rocket 4.1 21:03:14 10° S 21:09:33 85° E 21:15:58 10° N
H-2A R/B 3.7 21:07:42 10° S 21:11:24 49° W 21:15:05 10° NNW
Cosmos 1954 Rocket 4.1 21:09:24 10° N 21:14:41 61° ENE 21:19:56 10° SSE
CZ-4C R/B 3.9 21:08:11 10° NW 21:15:14 48° WSW 21:22:51 10° S
ALOS 4.4 21:11:27 10° SSW 21:15:26 28° W 21:19:27 10° NW
ERBS 4.0 21:13:20 10° WSW 21:16:35 37° NW 21:19:51 10° NNE
Cosmos 2227 4.2 21:12:58 10° NNW 21:18:37 69° ENE 21:24:15 10° SSE
Cosmos 1655 Rocket 4.0 21:13:36 10° S 21:19:50 78° E 21:26:11 10° N
Cosmos 1536 Rocket 4.2 21:16:18 10° N 21:20:18 36° ENE 21:24:04 11° SE
Cosmos 1812 4.4 21:18:55 10° NNW 21:22:30 36° W 21:26:03 10° SSW
Helios 1A 4.2 21:21:40 14° ESE 21:24:21 26° ENE 21:27:52 10° NNE
ERS-1 Rocket 4.5 21:26:23 14° E 21:28:54 20° ENE 21:32:28 10° NNE
BREEZE M DEB (TANK) 4.1 21:19:53 10° SSW 21:31:34 39° SSE 21:34:57 13° E
USA 186 2.0 21:29:07 10° S 21:32:26 75° W 21:35:49 10° NNW
Cosmos 1602 3.7 21:29:11 10° S 21:33:02 89° W 21:36:53 10° N
Okean 2 Rocket 4.2 21:28:51 10° SSW 21:33:11 49° W 21:37:34 10° N
Meteor 1-11 Rocket 3.8 21:27:47 10° S 21:33:34 63° E 21:39:14 10° NNE
ATLAS 3B R/B 4.2 21:28:40 10° N 21:33:40 21° NE 21:38:05 11° E
GPS 2-05 Rocket1 2.8 21:30:34 10° W 21:33:54 58° S 21:35:41 24° ESE
Envisat 2.9 21:28:53 10° SSE 21:33:56 77° ENE 21:39:01 10° N
NOSS 2-3 (D) 3.8 21:35:34 10° SSW 21:40:04 60° ESE 21:45:10 10° NE
USA 267 4.2 21:34:09 10° SSE 21:40:16 41° SW 21:46:25 10° WNW
SJ-11-01 4.3 21:38:44 14° SSE 21:42:42 63° ENE 21:47:19 10° N
GENESIS II 4.3 21:42:42 10° NNW 21:46:36 60° ENE 21:48:25 28° SE
ARGOS 4.5 21:45:47 19° E 21:47:41 23° ENE 21:51:46 10° NNE
Cosmos 2322 Rocket 2.2 21:45:46 10° SSW 21:51:28 88° WNW 21:57:13 10° NNE
Cosmos 2263 Rocket 2.5 21:47:25 10° NNW 21:52:57 48° ENE 21:55:53 26° SE
Delta 2 Rocket 4.1 21:52:56 10° SW 21:56:47 36° SSE 21:57:46 32° SE
Cosmos 44 Rocket 4.2 21:54:08 10° NW 21:58:39 44° WSW 22:02:28 14° S
Cosmos 1939 Rocket 2.9 21:56:10 17° S 21:59:10 76° WSW 22:03:08 10° NNW
Meteor 1-23 Rocket 4.3 21:54:21 10° N 21:59:49 53° ENE 22:02:41 27° SE
Cosmos 1110 Rocket 4.3 21:58:43 19° SSE 22:01:54 41° ESE 22:06:45 10° NNE
SL-16 R/B 2.4 21:56:34 10° SSW 22:02:13 72° WNW 22:07:54 10° NNE
Cosmos 1536 2.9 22:01:36 10° S 22:05:40 82° W 22:09:45 10° N
ATLAS 2AS CENTAUR R/B 2.9 21:58:37 10° SSW 22:06:08 73° ESE 22:14:13 10° NE
Lacrosse 5 rocket 2.4 22:06:37 10° WNW 22:10:01 34° SW 22:11:31 25° S
YAOGAN 6 2.6 22:08:46 36° S 22:10:06 76° WSW 22:13:39 10° NNW
Cosmos 2322 4.0 22:08:47 25° SSE 22:11:30 42° ESE 22:16:49 10° NE
Cosmos 1850 Rocket 4.0 22:07:36 10° NNW 22:12:57 86° WSW 22:15:44 29° SSE
Cosmos 1331 Rocket 4.1 22:14:52 32° SSE 22:16:55 51° ESE 22:21:58 10° NNE
NOSS 2-3 (E) 4.4 22:12:33 10° SW 22:17:08 60° NW 22:22:26 10° NNE
Okean 1 Rocket 2.9 22:15:27 23° S 22:18:10 89° W 22:22:33 10° N
Helios 1B rocket 2.5 22:16:08 10° N 22:20:14 74° WNW 22:23:21 17° SSW
COSMOS 2428 4.1 22:22:19 22° ENE 22:22:19 22° ENE 22:25:04 10° NE
MetOp-B 4.3 22:19:54 40° ESE 22:21:24 54° ENE 22:26:37 10° N
Resurs 01 Rocket 4.1 22:18:22 10° SW 22:21:34 19° W 22:24:47 10° NW
Cosmos 1300 Rocket 4.4 22:18:53 10° SSW 22:23:03 49° W 22:27:15 10° N
Cosmos 1607 4.0 22:17:45 10° NNW 22:24:14 69° ENE 22:26:39 40° SE
Cosmos 2360 Rocket 2.0 22:19:54 10° SSW 22:25:29 70° ESE 22:31:06 10° NNE
Okean 1-7 Rocket 3.6 22:21:45 10° N 22:26:12 59° E 22:26:35 57° ESE
Tiangong 1 2.4 22:24:28 10° WNW 22:26:21 33° NNW 22:26:21 33° NNW
Cosmos 2266 Rocket 4.2 22:21:08 10° SSW 22:27:09 68° W 22:33:10 10° N
Cosmos 2315 Rocket 3.9 22:23:08 10° N 22:29:23 72° E 22:31:51 39° SSE
Meteor 1-5 Rocket 4.3 22:25:22 10° SSW 22:30:42 70° W 22:36:00 10° N
BREEZE-M DEB (TANK) 4.2 22:30:09 10° WNW 22:31:37 14° NNW 22:32:24 12° N
SPOT 1/Viking Rocket 4.3 22:31:56 34° ENE 22:32:08 34° ENE 22:36:49 10° N
Cosmos 1025 Rocket 2.8 22:28:30 10° N 22:32:46 75° E 22:32:56 74° ESE
SeaSat 1 4.5 22:29:19 10° N 22:33:31 29° NW 22:37:43 10° WSW
Nadezhda 2 Rocket 4.3 22:31:03 27° S 22:34:37 81° E 22:40:51 10° N
SPOT 5 3.2 22:35:22 46° ENE 22:35:26 46° ENE 22:39:58 10° N
Cosmos 220 Rocket 3.8 22:31:19 10° NNW 22:35:39 85° ENE 22:35:52 79° SE
Lacrosse 5 2.3 22:37:05 10° SW 22:42:06 62° NW 22:47:08 10° NE
NOAA 11 4.3 22:41:13 41° S 22:43:11 74° WSW 22:48:43 10° NNW
USA 245 3.8 22:47:46 70° E 22:48:01 72° ENE 22:52:35 10° N
DELTA 2 R/B (1) 4.5 22:43:22 10° W 22:48:21 34° SSW 22:48:44 33° SSW
Cosmos 1745 Rocket 4.4 22:55:56 44° ENE 22:55:56 44° ENE 23:01:08 10° NNE
Okean 2 3.9 22:52:52 10° NNW 22:56:27 58° WNW 22:56:27 58° WNW
Atlas Centaur 2 3.3 22:50:43 10° W 22:57:47 38° SSW 22:58:01 38° SSW
USA 238 DEB 3.8 22:58:18 10° NNW 23:05:22 65° NE 23:06:30 57° E
USA 238 3.8 22:58:24 10° NNW 23:05:28 64° NE 23:06:37 57° E
ERS-1 Rocket 3.8 23:06:24 40° SW 23:07:19 45° W 23:12:08 10° NNW
Cosmos 1066 Rocket 4.2 23:02:05 10° N 23:07:04 67° NE 23:07:04 67° NE
H-2A R/B 2.0 23:10:30 73° N 23:10:30 73° N 23:15:03 10° NNW
Cosmos 1892 Rocket 4.5 23:09:05 10° N 23:12:13 46° N 23:12:13 46° N
ATLAS 3B R/B 2.4 23:18:29 10° NNW 23:25:11 84° WSW 23:25:20 83° SSW
Terra 3.1 23:29:05 34° NNE 23:29:05 34° NNE 23:31:56 10° N
Meteor 1-12 Rocket 4.3 23:27:34 71° WNW 23:27:34 71° WNW 23:33:00 10° N
ARGOS 3.9 23:27:17 43° WSW 23:27:36 43° W 23:32:42 10° NNW
Cosmos 2278 Rocket 3.7 23:31:28 10° N 23:35:15 27° NE 23:35:15 27° NE
Cosmos 2263 Rocket 4.0 23:32:16 10° NW 23:36:26 21° W 23:37:36 20° WSW
NOSS 3-2 (C) 4.4 23:34:58 10° NNW 23:42:18 51° NE 23:42:56 50° ENE
Cosmos 1844 Rocket 3.2 23:39:14 10° NNW 23:43:39 56° NNW 23:43:39 56° NNW
Nadezhda 1 Rocket 4.2 23:42:38 10° N 23:48:14 71° NNW 23:48:14 71° NNW
